GFSSW_700_rhum_180.txt.gz
RH
60 58 55 53 50 47 46 46 40 32 26 21 19 18 20 18 20 33 31 30 23 13 12 11 16 17 26 28 30 27 20 17 18 20 20 22 26 25 25 29 31 36 44 41 32
60 56 56 54 48 43 39 34 27 25 20 24 31 32 30 24 20 30 36 35 31 29 20 11 8 15 21 29 31 25 22 21 20 20 21 20 21 31 34 38 40 43 46 44 23
54 53 52 45 35 28 26 24 23 22 43 51 49 47 45 31 24 34 42 39 37 34 32 30 24 7 16 19 26 33 24 22 21 20 19 21 19 19 21 27 31 44 28 20 20
42 38 33 26 25 25 57 57 28 31 51 50 47 45 49 41 37 36 37 38 40 37 37 33 29 22 10 11 14 27 33 28 31 21 20 21 21 19 19 26 19 20 18 18 18
25 22 26 34 52 63 60 61 57 44 50 49 48 44 47 44 32 36 39 38 39 42 39 34 29 29 22 7 10 13 24 32 29 26 24 22 22 24 21 20 19 19 19 19 19
29 37 49 72 70 61 62 60 56 54 55 48 46 46 48 47 45 37 41 43 40 41 36 34 32 30 22 13 11 8 17 30 32 32 28 26 30 24 25 22 23 22 22 22 22
76 79 82 80 75 64 61 58 56 52 52 54 46 43 46 46 43 41 41 41 41 41 39 37 37 33 26 15 11 10 11 32 37 30 33 33 32 28 30 29 30 28 26 26 28
82 85 78 76 67 63 61 62 64 59 54 50 48 43 42 43 42 44 42 41 40 40 44 46 41 39 31 20 14 12 16 27 30 24 30 28 23 30 27 27 29 33 34 32 30
83 82 73 65 64 70 68 65 61 56 52 48 44 42 40 48 49 47 48 47 45 46 48 49 49 42 37 32 29 33 21 28 30 22 32 32 25 30 27 26 26 27 30 33 33
84 68 68 76 78 71 66 63 58 52 46 44 46 47 50 53 50 52 51 50 47 46 50 46 50 48 46 38 28 23 23 25 27 31 32 31 31 29 34 31 28 27 28 30 32
82 85 86 79 75 70 68 64 56 49 44 39 43 45 44 43 34 38 43 43 41 47 40 54 48 45 43 41 38 35 33 32 30 30 38 31 28 27 29 29 32 33 31 29 32
96 86 79 75 74 73 69 61 56 49 38 34 28 32 36 33 29 35 38 38 42 44 54 48 47 47 48 41 40 40 39 36 32 30 31 30 29 31 34 32 27 30 32 33 30
78 77 77 76 72 66 68 61 50 43 34 25 28 36 40 37 37 34 37 39 43 41 46 49 46 40 44 47 45 42 40 39 36 33 32 31 31 28 29 37 36 24 28 33 37
80 76 75 72 65 62 60 48 40 40 27 36 44 40 37 34 30 29 29 29 27 29 31 46 42 42 41 46 42 39 37 35 34 32 27 30 27 25 29 37 30 29 29 29 30
74 70 67 66 51 51 46 41 35 33 53 33 40 38 34 34 33 33 31 29 30 30 28 43 39 42 40 41 40 35 35 43 42 38 36 33 32 29 28 31 35 30 30 33 37
62 56 49 42 41 33 30 29 30 37 40 34 36 38 38 39 37 36 33 31 30 29 29 30 30 29 34 34 28 40 43 43 47 42 38 31 31 28 27 32 34 33 38 38 35
29 26 23 23 21 21 23 29 44 46 23 37 38 32 34 37 36 34 33 40 36 39 31 38 36 38 30 42 44 46 42 33 30 36 35 38 35 29 35 29 31 40 38 35 31
13 14 15 14 16 18 22 41 69 44 29 27 27 33 37 31 39 33 43 36 52 43 42 35 29 40 38 41 38 39 37 34 32 28 23 40 31 28 27 28 31 33 34 29 27
13 13 12 13 13 16 22 94 42 57 36 27 30 33 40 42 36 45 43 50 52 48 47 46 39 39 40 41 41 41 40 34 36 35 36 32 30 29 34 34 33 32 32 30 29
18 17 14 14 14 20 37 90 80 44 40 36 41 37 34 44 39 41 36 49 48 45 40 47 46 46 43 40 38 38 40 40 40 48 38 26 26 28 34 41 30 32 32 36 32
26 28 24 22 20 43 67 86 84 52 53 58 59 47 49 47 44 42 38 39 41 52 52 53 50 39 46 40 42 41 41 42 40 50 56 41 31 38 41 34 28 30 33 44 40
42 71 47 36 36 48 57 87 79 61 60 69 63 66 70 61 54 47 44 42 52 46 41 45 48 45 42 45 39 40 40 41 42 49 97 74 68 61 38 40 39 39 44 48 45
89 88 84 73 80 84 75 48 51 68 62 60 70 60 69 61 55 52 48 50 47 50 45 54 48 48 39 38 44 41 47 49 49 47 46 54 55 49 44 45 36 33 32 30 57
71 95 87 97 94 88 97 71 91 65 66 66 72 65 68 70 66 60 59 58 43 40 42 45 50 48 48 42 46 56 50 51 58 59 52 51 52 52 49 42 37 29 25 20 21
94 96 95 97 74 84 95 99 86 92 81 77 75 69 80 73 70 66 64 70 78 51 60 59 56 52 61 52 59 67 64 61 62 75 69 65 56 44 46 45 46 33 25 24 21
97 98 95 85 87 99 97 97 100 97 87 92 77 97 96 92 86 88 90 90 85 78 58 57 59 52 48 47 45 48 49 49 50 53 60 65 52 44 48 48 55 52 31 32 56
93 97 95 95 97 96 92 82 85 79 85 87 100 100 100 100 99 98 99 98 96 99 94 79 60 57 51 45 49 63 57 56 51 50 50 54 50 48 50 56 62 65 67 61 52

GFSSW_700_rhum_183.txt.gz
RH
56 56 54 53 49 43 41 34 26 19 18 16 21 32 34 32 22 18 36 29 28 26 13 12 23 30 21 27 26 23 19 15 14 15 16 22 27 27 32 53 57 61 54 44 38
54 56 54 53 46 37 31 23 22 21 18 25 47 46 44 40 33 22 25 32 31 31 30 29 17 9 29 28 26 23 18 17 18 17 18 19 20 24 37 41 55 28 35 42 43
52 50 49 45 36 26 22 24 55 52 31 36 46 48 48 43 37 46 31 35 33 32 33 33 31 29 23 26 26 26 23 21 20 20 20 17 20 22 26 26 37 54 43 46 38
41 38 35 28 23 26 40 55 56 55 50 46 46 46 48 50 50 39 30 30 34 34 34 36 33 32 27 23 26 26 25 27 23 26 24 24 19 23 22 23 35 52 43 22 18
27 27 25 22 28 55 60 56 54 54 51 46 46 46 44 45 60 35 33 35 34 37 38 37 34 33 29 27 26 25 25 29 27 28 28 28 28 23 22 24 25 20 19 18 18
21 22 25 36 54 72 70 60 51 49 49 47 43 42 43 44 42 40 41 41 39 37 40 37 34 32 30 31 30 29 31 27 29 31 32 32 29 27 28 24 23 21 20 20 21
35 38 66 80 78 72 64 56 53 52 48 44 40 36 35 39 38 38 41 43 41 40 39 38 36 36 38 34 36 17 29 24 25 28 29 33 30 29 29 30 30 25 25 24 23
83 88 87 83 80 71 61 58 62 59 54 47 39 33 28 33 32 33 38 44 43 43 40 40 41 40 38 37 31 32 30 27 21 28 27 27 21 23 28 33 33 39 52 35 29
88 88 84 87 77 65 65 67 62 56 52 46 39 35 34 34 39 41 44 49 48 43 41 41 43 43 46 44 34 27 26 22 23 29 27 29 24 26 26 26 30 36 54 44 34
99 91 84 84 74 72 75 66 62 57 49 44 44 38 53 58 44 47 45 43 45 47 42 42 46 47 42 37 30 26 25 22 22 24 29 30 28 26 26 27 33 35 49 60 29
92 89 85 85 81 78 69 67 68 76 48 41 38 32 31 34 29 37 37 41 43 41 42 55 52 38 34 37 39 37 33 31 29 28 28 28 28 28 26 25 27 35 42 57 29
92 86 82 84 81 73 70 66 62 59 45 34 25 21 21 22 25 38 35 35 42 53 52 55 47 39 40 42 40 37 34 31 30 30 29 28 28 25 25 26 28 33 37 52 71
87 91 84 77 76 71 67 61 59 51 35 23 23 27 33 34 36 41 38 39 44 53 51 49 41 42 41 41 40 35 33 33 32 30 28 25 22 20 20 23 26 29 34 41 67
86 86 82 79 72 64 56 50 45 41 25 48 38 42 36 35 34 31 29 30 36 46 47 43 43 35 33 38 36 32 29 34 32 31 27 24 23 19 18 21 28 32 36 45 54
84 81 78 71 63 55 46 40 35 24 48 38 43 31 33 37 35 35 30 30 44 41 34 33 45 42 38 31 31 30 32 34 33 34 32 24 20 16 16 21 23 34 41 40 49
75 71 66 56 48 36 29 27 26 45 42 37 31 40 40 42 43 42 34 29 26 25 37 32 34 36 30 30 30 29 31 32 31 29 30 25 22 19 20 30 34 41 36 34 35
64 55 41 28 21 19 20 21 56 44 29 29 35 29 40 38 42 44 40 33 30 27 25 21 29 28 38 32 30 36 35 29 25 22 22 16 23 22 23 35 37 44 41 31 37
30 22 19 16 16 16 17 62 65 33 30 39 23 30 34 38 37 37 31 27 22 40 29 23 22 30 40 36 29 30 28 28 33 28 23 19 22 19 28 29 25 24 28 34 32
15 14 13 12 12 14 18 86 49 40 36 42 36 28 22 35 31 33 29 30 31 41 32 31 30 34 36 36 38 31 34 31 31 31 30 23 20 20 20 29 42 47 33 34 35
14 13 14 13 14 16 41 75 58 64 57 49 29 22 25 23 36 37 32 30 41 43 42 35 37 36 34 40 36 33 31 30 30 38 41 26 22 18 35 35 51 58 52 38 34
17 21 35 20 18 32 80 82 65 62 76 59 40 30 35 30 31 33 32 31 33 37 41 40 39 37 34 35 34 30 33 35 33 33 39 41 31 32 46 54 56 66 49 67 41
77 58 56 35 31 75 93 79 69 67 91 76 54 53 47 44 43 42 40 37 36 45 45 39 36 40 38 32 32 36 32 29 31 30 30 50 62 44 64 60 55 53 51 48 55
81 90 79 61 89 92 89 79 74 80 77 76 71 65 59 57 49 43 41 40 42 47 44 53 45 43 37 32 30 39 36 39 37 38 37 47 46 49 57 53 55 53 49 52 59
100 100 95 96 85 98 89 82 83 94 86 78 78 74 66 60 54 51 49 48 54 55 55 53 44 42 43 35 30 54 51 47 44 48 56 60 52 46 49 55 53 46 48 51 56
93 96 96 97 95 90 92 95 95 93 90 90 82 84 74 69 62 58 56 56 55 58 68 57 50 47 41 36 34 38 45 36 34 37 39 51 52 40 53 62 61 65 51 56 57
98 96 97 96 75 84 96 97 93 88 96 90 87 85 78 74 67 64 87 85 78 76 76 58 57 52 48 39 34 33 32 31 31 31 32 32 35 37 39 42 51 53 48 52 51
87 98 97 97 95 94 88 87 100 98 93 94 96 92 88 91 96 96 98 94 91 86 86 82 74 66 53 43 43 48 48 44 38 37 39 47 46 45 45 51 63 46 54 56 62

GFSSW_700_rhum_186.txt.gz
RH
52 51 52 49 48 46 41 32 20 15 31 21 20 44 42 39 39 33 22 19 22 27 24 16 15 24 28 29 25 23 21 18 15 14 15 19 22 25 29 46 59 64 54 49 42
53 52 49 48 46 40 32 21 17 41 48 44 35 43 44 38 38 36 32 24 26 29 29 28 25 20 28 25 25 24 22 18 18 17 17 17 18 19 33 29 35 40 48 44 35
46 45 45 42 39 31 22 24 49 52 50 48 46 45 45 44 49 45 39 32 32 31 30 32 30 32 31 23 23 23 24 23 22 19 19 18 16 18 20 25 32 43 42 40 33
34 36 35 30 26 20 18 55 54 48 44 43 43 41 43 45 48 44 36 29 30 31 33 33 33 34 30 26 21 24 23 23 24 23 23 22 21 18 21 21 25 51 59 47 42
23 24 22 19 17 19 42 58 57 51 46 43 39 39 37 38 43 38 38 35 32 36 35 38 37 38 34 28 26 24 24 23 25 26 25 26 25 25 23 21 23 25 32 30 24
20 20 18 18 25 46 64 63 54 47 44 43 39 33 34 32 36 36 35 35 35 35 38 39 39 35 32 36 33 29 29 29 24 24 26 28 28 28 27 24 25 27 26 23 20
48 50 48 41 58 71 69 62 56 53 48 45 38 30 26 27 29 30 32 31 33 36 39 39 34 35 36 34 34 30 29 28 25 22 25 27 28 27 23 26 27 30 34 50 30
71 74 75 76 75 74 71 69 62 57 56 49 43 39 33 31 27 27 34 43 34 36 37 40 39 37 36 33 31 36 31 29 25 22 24 26 25 24 24 26 29 33 35 46 64
85 83 77 74 77 78 74 70 64 62 57 50 45 38 34 34 43 38 43 41 48 44 41 40 40 38 36 46 42 33 29 24 22 24 25 27 26 25 27 25 26 27 32 41 62
89 87 83 78 79 77 71 70 70 63 56 51 47 44 54 66 56 26 36 44 47 47 46 48 53 46 47 42 34 29 29 27 23 22 27 26 26 27 27 28 27 28 29 36 53
85 78 85 87 78 72 69 74 68 69 56 50 44 40 31 36 32 24 25 41 47 46 60 61 52 49 38 34 36 38 36 32 28 26 26 27 27 26 26 25 26 25 29 32 51
86 87 86 79 85 77 76 71 64 60 50 40 30 25 22 21 18 23 24 32 36 39 56 58 52 47 39 36 37 35 32 30 28 27 28 28 28 27 25 24 23 24 25 30 40
90 85 88 88 83 77 74 69 61 52 40 28 27 25 31 23 23 40 39 40 45 50 51 49 44 41 40 40 37 33 32 30 29 29 28 24 22 20 19 19 20 21 23 29 36
100 96 97 84 80 74 71 60 47 38 24 44 33 29 33 32 32 31 30 35 49 46 42 42 40 43 43 37 31 30 28 26 26 28 25 21 23 22 18 16 16 16 25 28 34
98 87 85 82 78 74 63 47 36 21 60 42 41 25 21 27 36 38 30 30 42 41 40 35 42 36 38 32 28 26 26 27 29 28 27 25 22 19 18 18 23 23 26 32 38
86 82 81 75 71 61 48 36 26 46 51 34 37 31 25 32 38 38 31 27 25 29 30 29 23 26 28 26 26 25 26 26 25 25 31 25 24 22 18 24 30 32 37 38 37
87 82 78 68 59 42 27 22 40 53 27 23 31 35 34 34 36 38 36 35 36 29 26 23 22 23 26 33 33 27 28 35 35 33 30 19 17 15 17 25 28 33 28 31 27
89 75 64 52 35 21 19 22 74 36 36 27 28 26 30 21 28 31 33 28 22 22 21 30 26 18 24 34 33 31 29 30 36 36 28 24 23 20 19 22 26 34 46 34 25
63 51 34 23 17 16 18 89 52 47 38 31 30 32 27 20 31 30 29 28 26 25 36 33 26 28 31 34 32 33 33 29 29 29 31 28 25 22 30 32 39 42 46 63 41
37 24 21 13 13 14 20 69 63 38 49 50 43 28 22 20 24 33 34 29 29 35 38 38 37 31 30 32 33 36 33 32 30 43 41 28 24 22 38 47 51 54 59 58 72
19 19 31 19 15 18 27 59 53 45 64 68 55 45 36 29 28 27 29 30 29 29 32 36 39 40 36 34 33 31 31 30 31 34 46 55 44 30 53 61 75 69 71 83 85
37 52 60 40 34 26 48 64 61 67 58 64 73 65 61 48 40 37 33 32 34 36 38 40 44 44 39 34 34 34 32 30 33 34 30 36 49 40 49 60 63 54 58 69 57
29 51 58 71 60 54 50 80 78 78 68 66 76 66 65 59 48 47 47 45 42 42 43 47 49 47 41 36 34 34 38 40 52 45 38 51 46 33 32 49 56 67 87 70 58
77 79 94 94 77 85 90 88 80 76 70 71 78 69 68 67 62 60 51 45 47 48 49 50 54 52 50 40 35 34 33 41 49 51 50 53 54 40 37 36 34 37 43 50 59
75 90 76 85 94 75 86 96 97 86 91 77 66 74 75 74 68 60 54 51 50 52 53 53 56 53 49 40 38 37 36 34 38 48 44 35 32 34 32 31 34 36 39 45 46
82 89 96 100 95 94 83 91 96 89 90 97 91 79 74 74 70 64 72 86 93 74 73 85 96 89 52 47 42 40 38 34 31 28 28 29 31 32 36 36 40 41 47 51 51
96 96 99 96 96 97 91 89 97 96 91 88 96 87 88 93 96 89 86 95 98 95 86 85 90 94 92 67 56 56 47 42 40 38 36 35 41 44 38 45 53 64 57 52 52

GFSSW_700_rhum_192.txt.gz
RH
30 34 40 41 40 37 33 27 22 16 14 45 44 41 37 37 35 38 30 28 26 22 17 22 22 20 17 23 26 27 28 24 22 22 24 20 18 17 24 30 32 48 53 58 56
23 24 27 29 27 28 25 23 18 13 36 46 41 36 36 36 36 42 34 30 25 23 19 19 25 24 23 22 27 27 26 24 24 25 24 24 20 18 22 29 26 28 30 34 36
16 16 18 17 17 19 18 17 14 14 43 46 41 36 36 33 32 37 33 34 33 27 25 23 24 26 25 25 27 28 27 25 26 25 24 25 25 22 20 21 22 24 27 30 40
20 16 14 14 14 14 14 14 15 37 51 45 41 36 39 37 34 30 30 31 34 32 30 32 29 24 22 22 26 27 26 25 25 24 24 26 26 24 22 22 22 22 22 22 24
32 25 24 25 21 21 17 18 42 55 55 54 46 38 35 35 36 30 28 26 32 33 33 33 32 30 26 26 24 26 25 24 24 24 23 26 25 24 21 22 24 23 22 23 24
47 52 58 58 58 60 58 56 58 59 52 49 45 40 38 37 35 33 31 28 25 30 35 35 32 34 35 30 28 28 24 24 23 22 23 24 24 25 21 26 26 26 24 24 24
70 68 69 67 64 66 65 62 60 57 53 51 46 41 35 38 36 33 32 30 28 24 30 38 36 36 37 36 35 32 31 26 21 22 22 24 22 23 24 25 24 25 26 27 27
78 78 77 78 77 71 66 65 63 58 55 51 50 46 37 39 35 33 29 27 28 30 29 36 31 35 42 41 36 37 34 31 27 32 26 28 27 22 26 27 25 24 26 27 27
86 82 80 78 76 77 75 69 67 58 57 51 51 48 40 39 36 33 33 30 26 27 30 35 39 40 44 46 40 34 37 41 37 30 27 27 26 24 26 26 26 28 28 28 28
80 79 78 82 76 76 77 72 64 60 55 51 54 49 45 42 35 34 33 26 24 31 38 44 47 43 47 49 47 42 48 46 40 37 30 30 28 27 27 27 29 30 28 28 28
87 85 83 82 85 88 86 74 65 60 52 52 52 47 41 40 37 35 42 37 30 29 27 28 42 40 36 37 48 52 49 39 38 36 30 32 30 28 27 27 27 28 28 27 26
83 88 85 86 85 93 85 74 66 68 48 50 44 38 31 32 28 30 29 28 24 22 26 29 24 26 47 44 52 49 45 41 39 37 32 28 26 26 25 24 23 24 26 24 24
90 90 87 92 87 92 83 67 77 71 66 39 33 30 29 24 26 24 22 23 26 28 33 38 21 33 49 48 50 50 42 40 32 32 31 29 25 21 13 6 6 8 11 16 18
90 93 97 100 92 87 80 81 76 70 51 34 34 28 26 24 24 22 26 23 24 30 42 44 43 40 44 47 46 45 47 37 30 28 26 27 29 19 10 10 19 22 21 19 20
96 93 92 94 94 90 84 83 75 67 58 40 36 28 25 22 22 23 22 22 23 27 40 31 40 42 43 41 35 32 33 31 30 29 26 26 23 14 14 21 27 24 26 26 24
99 96 98 96 99 95 89 83 74 50 35 30 31 27 22 19 22 20 19 22 25 28 40 40 36 27 24 34 27 28 29 27 26 25 37 27 24 27 27 28 28 26 24 23 27
100 100 99 100 100 94 90 81 66 36 33 31 32 33 28 25 23 38 33 25 28 40 32 28 28 24 23 21 22 23 25 36 41 46 45 31 32 31 32 29 28 29 30 33 29
99 100 100 100 100 100 91 76 45 42 33 33 37 35 32 23 20 24 28 35 29 33 34 31 28 21 25 30 34 34 30 35 55 61 47 35 34 32 37 39 39 42 47 52 54
100 100 100 98 100 99 96 65 57 48 26 39 36 36 34 30 29 28 25 27 25 30 33 30 30 30 29 32 31 34 35 35 35 37 44 36 33 38 46 41 46 54 54 54 55
100 100 100 99 98 97 97 74 52 35 47 51 44 37 38 32 29 26 30 31 31 30 31 33 33 31 29 28 31 30 34 36 37 50 50 36 33 35 50 49 50 52 60 68 62
100 100 99 99 98 98 94 87 56 31 32 52 57 57 52 50 38 36 36 32 34 32 31 35 32 32 35 35 28 27 25 34 39 38 55 56 45 51 57 55 47 45 42 64 74
100 100 98 98 97 97 93 81 49 31 30 29 52 56 52 53 56 44 46 42 34 37 37 36 44 42 38 34 36 36 32 37 42 41 44 71 82 48 58 55 59 70 52 52 41
99 99 98 98 96 93 78 57 48 38 40 51 66 63 68 64 66 53 43 39 41 42 41 46 45 46 42 39 37 36 36 41 41 41 56 93 77 62 56 53 52 58 56 44 43
98 96 97 98 97 94 95 85 66 69 84 49 33 30 56 66 74 76 69 65 57 48 51 52 52 51 51 45 47 45 42 37 42 49 47 46 50 60 51 42 42 69 48 43 37
98 96 91 96 97 94 94 95 93 85 83 79 58 56 61 69 65 67 70 72 71 71 60 53 72 63 55 50 50 53 44 63 70 70 61 52 50 52 47 42 45 46 43 41 46
95 95 96 95 96 97 95 94 94 92 90 83 92 86 87 86 84 78 74 71 70 71 72 61 86 79 69 62 60 65 56 69 68 53 68 59 54 46 46 46 46 49 44 46 45
91 95 95 94 95 95 88 83 82 89 82 81 77 77 81 77 79 76 70 73 71 77 85 88 90 97 94 84 95 92 56 53 48 43 45 55 50 62 67 65 55 51 53 47 40

GFSSW_700_rhum_198.txt.gz
RH
27 22 20 20 17 16 16 14 12 12 11 10 29 41 36 34 33 28 33 32 35 30 23 21 19 18 22 19 22 29 28 28 27 26 25 25 25 24 25 22 22 26 27 25 24
40 32 28 36 25 16 15 15 13 12 11 11 39 42 40 35 34 33 34 28 28 32 29 24 19 20 24 26 25 29 29 27 27 27 26 26 26 25 25 25 25 24 22 28 26
54 47 42 46 38 28 28 28 28 23 20 33 43 42 40 37 34 35 30 27 26 25 29 28 26 22 23 26 28 27 26 27 27 28 27 26 25 25 26 25 25 25 25 22 24
60 61 61 59 51 51 54 57 57 55 49 44 43 41 40 40 41 36 34 35 32 28 25 27 28 27 26 23 23 25 27 28 26 26 26 26 26 26 26 25 24 24 24 25 24
58 58 61 64 62 61 63 64 61 57 52 48 43 40 40 38 38 34 35 34 35 33 30 28 28 28 27 28 25 26 24 24 24 25 26 26 24 25 24 25 25 26 24 25 25
57 58 61 65 67 64 67 68 70 66 55 52 47 44 40 40 38 39 35 36 35 34 33 31 28 29 32 30 30 30 27 24 23 24 26 25 22 22 21 22 23 24 24 26 25
60 59 63 64 68 67 66 65 65 63 61 57 52 47 40 42 37 36 35 37 34 31 31 35 34 30 31 34 33 34 31 26 27 29 31 31 27 28 25 22 22 22 23 27 26
63 63 64 66 69 68 67 63 64 62 55 53 47 44 40 38 33 33 37 36 38 38 37 37 40 43 42 38 34 36 34 30 26 29 35 33 32 28 28 28 24 24 26 27 27
67 66 68 69 71 72 69 66 66 63 59 51 47 46 38 39 38 37 39 38 40 43 38 37 42 42 40 38 35 34 36 37 31 36 39 40 38 31 34 30 29 26 26 27 28
67 68 70 74 74 74 70 65 68 63 61 53 47 43 39 38 37 39 40 41 41 37 42 35 37 30 25 26 34 36 44 48 43 32 41 39 38 34 36 38 31 30 29 28 28
69 69 71 74 76 76 71 68 65 60 52 54 53 44 36 37 36 35 39 40 40 38 34 33 30 24 22 26 32 39 48 47 32 34 51 41 40 35 31 34 34 32 31 29 27
74 74 75 76 80 75 74 77 79 79 47 50 45 40 35 33 31 29 29 30 31 32 29 25 21 21 21 23 31 41 50 40 45 41 44 44 45 45 36 31 30 30 29 21 20
77 80 80 80 80 83 82 87 83 79 75 45 47 35 32 25 22 22 24 23 20 21 24 23 27 24 30 30 43 46 53 51 51 53 54 47 40 31 20 14 11 10 9 9 9
79 80 82 84 78 80 89 91 90 88 80 51 36 29 27 23 22 20 19 20 19 21 23 20 21 28 37 32 42 47 46 45 41 38 34 34 34 28 19 14 11 14 11 12 14
90 88 88 88 85 76 89 97 100 94 84 53 42 35 30 25 26 22 21 23 22 23 23 22 23 37 43 40 41 37 36 31 28 30 32 32 29 24 22 21 21 19 12 16 16
98 99 94 93 97 89 99 98 100 97 75 54 39 34 30 24 24 22 20 23 21 22 23 20 19 20 19 32 36 31 27 26 25 25 37 28 30 24 24 24 24 26 28 28 27
99 99 98 98 98 100 99 100 100 98 72 52 45 39 32 29 27 28 28 28 28 33 32 29 25 20 19 24 22 23 24 33 35 42 37 28 32 27 26 28 31 32 34 35 36
99 98 97 100 100 100 100 100 100 98 81 58 45 37 34 34 32 29 25 27 32 35 36 35 31 26 26 25 26 28 28 30 45 50 43 35 37 30 33 34 36 44 50 54 56
100 100 100 100 100 100 100 100 96 97 92 79 66 47 37 34 35 32 27 25 26 27 28 30 32 31 29 31 33 36 35 37 38 41 50 38 35 37 37 45 53 54 59 56 57
100 100 100 100 100 100 100 98 100 98 98 90 76 64 48 40 38 36 34 34 31 30 31 33 32 30 28 31 31 32 33 34 37 53 51 40 38 37 42 54 56 58 55 53 52
100 100 99 100 100 100 99 99 100 100 98 97 85 71 69 57 49 39 38 37 35 37 37 37 38 38 38 36 35 35 35 35 36 36 52 45 37 44 49 52 57 62 59 55 58
100 100 98 100 99 99 99 98 100 98 99 96 90 79 82 70 66 51 49 46 47 43 45 46 49 45 42 36 34 40 39 38 41 42 42 58 48 45 46 46 56 65 66 53 56
100 100 100 100 99 99 100 100 100 100 99 99 90 98 96 88 82 78 58 59 58 53 57 60 52 57 47 46 43 48 46 48 49 51 53 70 57 45 45 48 47 41 41 46 53
100 99 99 99 97 100 100 99 99 100 100 99 98 98 97 96 96 93 93 70 66 72 80 79 78 68 70 65 66 68 67 65 62 60 59 57 57 52 54 47 44 40 44 53 47
99 99 97 96 95 100 100 100 100 99 99 98 98 98 97 97 97 96 94 91 80 79 76 74 76 73 70 69 73 65 69 79 77 70 68 65 65 63 40 37 52 48 45 48 53
100 99 98 97 100 99 99 97 99 100 98 97 97 97 97 96 95 96 97 95 87 89 90 83 90 82 74 71 62 60 60 73 68 74 83 84 82 28 40 57 54 49 52 58 63
99 99 99 98 99 100 97 97 96 100 98 97 98 97 96 94 96 95 96 96 96 91 90 92 96 96 89 83 82 80 58 58 52 54 53 64 38 49 52 50 55 57 57 72 81